National Weather Service Hourly Weather Roundup
NOAA NWS Hourly Roundups by Site
NOAA NWS Hourly Roundups by Site
Regional Weather Roundup for Sacramento, CA

To Select Another Site Choose from List

Select Site:  

314
ASUS46 KSTO 240115
RWRCA

NORTHERN AND CENTRAL CA REGIONAL WEATHER ROUNDUP
NATIONAL WEATHER SERVICE SACRAMENTO CA
600 PM PDT SAT MAR 23 2019

NOTE: FAIR INDICATES FEW OR NO CLOUDS BELOW 12,000 FEET WITH NO
SIGNIFICANT WEATHER AND/OR OBSTRUCTIONS TO VISIBILITY.

CAZ001-003-240200-
NORTHWEST AREA

CITY           SKY/WX    TMP DP  RH WIND       PRES   REMARKS
CRESCENT CITY  SUNNY     53  45  74 NW6       30.22F
UKIAH          SUNNY     57  37  47 NW7       30.17S
$$

CAZ006-505>513-240200-
BAY AREA

CITY           SKY/WX    TMP DP  RH WIND       PRES   REMARKS
SANTA ROSA     MOSUNNY   58  44  60 SW10      30.15S
SAN RAFAEL     N/A      MM  MM  MM MISG
NAPA           SUNNY     57  45  64 W16       30.17S
CONCORD        MOSUNNY   61  40  45 NW13      30.18S
OAKLAND CITY   N/A       60  MM  MM MISG
OAKLAND        MOSUNNY   59  47  64 W16       30.20F
SAN FRAN CITY  N/A       56  MM  62 MISG
SAN FRAN ARPT  MOSUNNY   56  44  64 W14       30.20F
LIVERMORE      SUNNY     57  43  59 W10       30.18S
HAYWARD        SUNNY     67  45  45 W15       30.20S
REDWOOD CITY   N/A       59  MM  58 MISG
MOFFETT ARPT   SUNNY     59  40  49 W14       30.20F
SAN JOSE ARPT  MOSUNNY   59  27  29 N16       30.19F
$$
CAZ034-037-514>518-240200-
CENTRAL COAST

CITY           SKY/WX    TMP DP  RH WIND       PRES   REMARKS
WATSONVILLE    CLOUDY    62  48  60 VRB6      30.18S
SALINAS        MOSUNNY   58  43  57 W10       30.20F
MONTEREY       MOSUNNY   57  44  62 W9        30.22S
SAN LUIS OBISP MOSUNNY   57  47  69 NW17      30.17R
SANTA MARIA    PTSUNNY   59  49  69 NW22G32   30.15S
$$
CAZ015-016-240200-
NORTHERN SACRAMENTO VALLEY

CITY           SKY/WX    TMP DP  RH WIND       PRES   REMARKS
REDDING        PTSUNNY   56  46  69 S8        30.13S
RED BLUFF      MOSUNNY   59  42  53 S3        30.16S
OROVILLE       MOSUNNY   53  46  77 MISG      30.18F
$$
CAZ016>018-240200-
SOUTHERN SACRAMENTO VALLEY

CITY           SKY/WX    TMP DP  RH WIND       PRES   REMARKS
AUBURN         MOSUNNY   55  41  58 VRB7      30.15R
BEALE AFB      RAIN      52  45  76 CALM      30.18R
LINCOLN        CLOUDY    54  43  66 N20       30.16R
MARYSVILLE     LGT RAIN  51  46  83 E7        30.18R
SAC INTL ARPT  MOSUNNY   63  43  48 N5        30.14R
MATHER AIRPORT NOT AVBL
DOWNTOWN SAC   N/A       62  MM  MM MISG
SAC EXEC ARPT  MOSUNNY   60  45  57 SW13G22   30.15R
VACAVILLE      SUNNY     61  46  57 W9        30.16S
$$
CAZ019>021-240200-
SAN JOAQUIN VALLEY

CITY           SKY/WX    TMP DP  RH WIND       PRES   REMARKS
STOCKTON       PTSUNNY   61  46  57 W12       30.16S
MODESTO        MOSUNNY   63  42  46 NW10      30.15S
MERCED         MOSUNNY   62  45  53 W6        30.16R
LEMOORE        SUNNY     63  42  46 NW8       30.16S
FRESNO         MOSUNNY   63  43  48 NW9       30.15S
HANFORD        SUNNY     64  42  44 NW12      30.16S
PORTERVILLE    CLOUDY    61  49  64 W3        30.16S
BAKERSFIELD    CLOUDY    60  48  64 NW9       30.15S
$$
CAZ011-012-071-240200-
NORTHERN MOUNTAINS

CITY           SKY/WX    TMP DP  RH WIND       PRES   REMARKS
YREKA          CLOUDY    44  35  70 E7        30.15F
MOUNT SHASTA   CLOUDY    42  35  76 NW8G16    30.12S
ALTURAS        MIX PCPN  36  34  92 W10       30.10R WCI  28
$$
CAZ011-012-071-240200-
SIERRA NEVADA MTNS

CITY           SKY/WX    TMP DP  RH WIND       PRES   REMARKS
TRUCKEE        MOSUNNY   34  28  80 W10G18    30.10S WCI  26
TAHOE VLY ARPT LGT SNOW  31  28  89 S9        30.10R VSB 3/4 WCI  23
MAMMOTH LAKES  FAIR      39  21  48 S8G16     30.04S WCI  33
$$



 

View Past Reports for Sacramento, CA.

Products Courtesy of NOAA-NWS
NWS Information Parsing Script by Ken True at Saratoga Weather - Script by SE Lincoln Weather.

powered by Cumulus v1.9.3 (1059)
Ambient Weather VWS v14.00
Top Contact Website Map Copyright © 2007 - 2019 Foresthillweather.com Never base important decisions on this or any weather information obtained from the Internet